Location: ?
(35.4554°N, 139.3092°E)
Time: 21:51:46
(UTC+00:00)

Cosmos 1300 Rocket - Pass Details

Date: 21 April 2021
Orbit: 603 x 625 km, 82.5° (Epoch: 10 May)

Event Time Altitude Azimuth Distance (km) Brightness Sun altitude
Rises 18:06:10 0° 348° (NNW) 2,915 7.3 -22.2°
Reaches altitude 10° 18:08:26 10° 344° (NNW) 2,003 6.4 -21.8°
Maximum altitude 18:12:47 57° 266° (W) 739 3.6 -21.0°
Enters shadow 18:12:58 56° 255° (WSW) 743 3.6 -21.0°
